Theta_e
324 324 324 324 324 324 326 330 336 340 341 342 340 338 340 335 334 334 333 334 334 333 333 333 333 333 333 333 332 333 333 332
326 328 327 325 325 325 328 335 339 342 344 340 339 335 334 334 330 328 332 332 331 331 329 329 329 330 329 330 330 332 331 331
325 330 334 335 334 336 338 340 340 340 337 335 332 323 313 310 308 307 308 310 313 322 323 322 318 318 324 324 326 328 330 329
321 322 324 323 321 318 317 314 313 312 312 311 310 309 308 308 308 307 308 310 310 309 310 310 310 309 308 307 307 309 320 324
319 318 317 316 314 312 311 311 310 310 309 308 307 307 306 306 306 306 306 308 308 307 307 307 307 307 307 306 306 305 306 314
318 316 315 313 311 311 310 309 309 308 308 306 305 305 305 305 306 306 307 307 308 308 307 306 307 307 306 306 306 305 305 307
317 314 313 312 311 310 309 308 307 306 305 305 305 305 305 305 305 304 302 302 302 302 302 302 302 303 304 303 304 304 304 306
315 314 312 311 310 309 307 306 305 305 305 304 304 303 302 302 300 299 300 301 301 301 300 300 301 303 304 303 305 308 309 308
312 312 310 309 308 306 305 305 305 305 304 303 302 300 298 298 299 300 301 302 302 301 300 299 299 301 304 304 308 309 308 307
311 310 308 307 306 305 305 304 304 303 302 302 300 298 297 297 298 299 299 300 301 300 299 299 300 302 304 305 307 308 306 305
309 308 307 305 305 305 304 304 303 302 301 300 299 297 297 297 298 298 299 300 299 299 300 302 302 303 304 304 304 304 304 303
307 306 305 305 304 304 304 303 302 300 300 299 298 297 298 298 299 300 300 300 301 302 301 300 301 302 302 304 303 302 302 302
306 305 305 304 304 303 302 301 300 300 299 298 298 298 298 299 300 299 301 303 302 301 300 300 299 299 299 300 301 300 300 300
304 304 304 304 303 302 300 300 300 298 298 299 299 298 299 299 300 302 302 302 301 299 300 299 299 299 300 299 298 297 297 297
303 304 304 303 301 300 300 299 298 298 299 299 299 298 299 300 301 302 302 301 300 299 298 298 298 298 296 296 296 296 295 295
303 303 302 301 300 300 299 298 298 299 299 299 298 299 299 301 302 302 301 300 297 297 298 297 296 296 296 296 295 295 295 296
302 302 301 300 299 298 298 298 299 299 299 298 298 299 300 301 301 300 299 297 297 297 295 295 295 295 295 295 295 295 295 296
301 301 300 299 299 299 299 299 299 299 299 298 299 300 301 301 300 298 297 296 295 294 295 294 294 294 294 294 295 294 296 297
301 300 299 299 299 299 299 299 299 299 298 299 300 300 300 300 298 296 295 294 294 293 293 293 293 293 293 293 294 294 295 296
Wind_Speed
11 14 15 17 19 20 21 21 21 20 19 16 12 9 7 9 10 12 13 14 16 19 19 22 26 31 31 31 34 36 44 44
10 11 13 16 19 21 21 19 19 18 17 14 9 10 10 12 9 9 12 13 15 16 19 23 23 28 31 35 33 38 36 44
16 16 17 18 19 18 18 18 18 16 14 12 9 7 5 2 4 8 10 12 16 19 21 22 20 25 30 28 34 39 45 44
26 24 23 23 23 21 21 20 19 17 14 10 6 0 4 7 10 12 12 14 17 20 22 24 26 27 28 28 28 32 36 45
29 28 26 23 22 20 17 14 11 9 6 2 2 5 8 11 14 16 16 19 22 26 28 30 31 31 33 33 33 31 30 33
30 28 26 24 20 17 14 12 8 5 2 2 5 9 12 16 19 20 21 24 26 29 32 36 40 41 41 41 41 41 37 34
30 27 26 25 22 18 15 11 7 3 2 5 9 12 15 18 22 26 30 31 32 33 35 38 43 47 49 47 46 44 42 39
34 32 29 27 23 19 15 10 6 3 3 7 11 16 21 25 28 30 33 34 35 36 37 38 39 40 45 46 39 39 38 39
33 32 29 25 21 17 12 8 5 4 6 11 16 19 23 25 27 31 34 36 39 42 43 43 42 38 39 41 37 39 40 43
36 32 28 23 20 16 11 7 5 7 11 16 19 22 25 27 30 33 37 40 43 45 45 44 42 40 36 36 40 45 47 48
35 31 26 22 17 13 10 7 8 12 16 19 23 26 27 30 34 38 39 42 44 45 45 43 41 37 36 38 40 43 46 49
34 29 25 21 17 13 9 8 11 14 18 21 24 26 28 33 37 39 42 45 43 42 40 37 35 35 36 37 42 44 47 52
33 29 27 22 18 13 10 10 12 16 19 22 24 28 33 35 38 40 41 40 38 38 37 37 38 40 43 44 47 48 47 46
32 28 27 24 18 12 9 10 13 17 20 23 27 32 36 37 39 39 38 39 39 38 36 40 42 43 43 43 42 44 49 50
32 29 27 21 14 9 9 11 14 16 20 26 31 34 36 38 38 37 38 38 40 39 37 37 39 40 40 42 43 42 42 43
32 30 25 17 11 9 8 10 14 18 22 28 33 35 35 36 36 37 38 38 35 35 36 37 36 35 36 35 34 35 36 37
32 27 20 14 9 5 7 12 16 20 26 32 34 34 34 35 36 38 37 35 32 33 32 32 31 30 29 28 28 29 29 33
32 26 18 11 6 5 9 14 18 22 29 32 33 33 34 35 36 36 34 31 30 28 27 26 26 24 24 25 22 25 28 34
28 22 15 8 5 6 12 16 19 25 30 31 32 32 32 33 34 32 30 26 24 23 23 22 22 21 20 20 20 22 27 29
Wind_Direction
194 203 203 205 203 204 207 206 206 205 206 212 222 229 248 258 258 264 270 274 274 276 289 290 282 280 278 282 280 277 268 271
172 181 185 193 195 197 197 192 184 189 195 196 203 229 252 266 280 289 280 276 278 279 283 284 286 282 288 278 279 276 277 274
155 152 156 160 158 159 154 149 147 153 169 183 195 195 188 224 313 322 316 304 294 289 287 288 293 290 280 284 287 280 277 273
163 151 144 138 133 132 131 132 137 140 142 142 141 122 321 321 316 316 308 295 294 291 286 285 286 288 290 289 288 284 276 274
167 161 152 149 142 139 138 136 136 132 128 129 311 309 312 310 300 295 287 279 280 284 288 290 290 288 287 290 291 291 282 273
170 164 159 154 150 149 145 141 140 133 129 335 325 323 319 314 309 301 295 291 288 290 293 294 291 290 287 284 285 286 285 276
172 166 160 154 151 152 152 153 157 169 272 319 322 323 316 306 301 301 301 299 298 295 291 290 288 286 286 285 285 282 279 273
173 169 163 159 157 159 162 168 180 199 288 310 315 314 309 306 306 307 305 303 302 304 305 303 298 290 285 285 282 272 273 275
171 169 169 165 165 173 176 186 205 232 286 306 314 314 309 308 308 306 304 307 310 310 307 303 298 293 283 277 276 272 275 280
171 172 170 172 179 179 187 204 238 283 306 312 313 314 313 313 312 311 313 311 309 308 306 301 295 290 284 272 269 271 275 278
173 172 175 183 188 194 204 236 276 297 309 315 318 319 316 314 315 316 314 312 311 308 305 299 293 289 283 281 279 277 279 280
171 177 184 186 191 196 217 251 283 301 310 316 318 319 321 320 318 318 316 313 312 309 310 308 302 297 290 285 286 285 283 280
178 184 186 189 192 205 231 269 291 305 316 320 323 325 323 320 319 317 317 315 313 313 310 306 301 296 292 291 290 289 284 280
180 184 189 190 199 215 241 275 299 313 319 322 324 323 321 322 319 319 319 317 313 310 301 300 301 300 299 295 291 287 286 283
184 184 188 195 205 228 267 297 311 316 320 323 323 322 322 321 322 323 322 319 314 311 310 308 304 301 296 294 292 291 288 284
184 186 189 197 213 245 287 313 318 318 320 322 323 323 322 322 325 327 323 321 323 322 314 308 306 304 301 298 294 294 293 293
188 188 191 197 215 257 308 323 322 317 322 323 322 322 323 326 327 327 326 322 320 317 317 315 311 305 303 300 299 303 305 310
187 187 188 190 219 269 321 326 322 322 322 323 322 324 325 327 329 328 328 324 322 323 322 317 315 315 315 312 312 315 323 320
184 184 182 197 238 306 325 323 321 322 324 326 326 326 327 330 330 332 331 328 328 329 329 331 337 335 335 335 330 333 327 318